カタログに戻る

STARLINK-3652

運用中通信VLEO
NORAD 51991·PAYLOAD·🇺🇸 United States

打ち上げ Mar 9, 2022 から Cape Canaveral Space Force Station

Loading…

次のパス (今後24時間)

TLE

最新Source: CelesTrak SupGP

元期: Sep 15, 2026, 02:28 UTC

1 51991C 22025AM  26258.10326389 -.00034201  00000+0 -10100-2 0  2584
2 51991  53.1575 253.0071 0001355  83.0393 248.8472 15.34422347    12

AllMySatでSTARLINK-3652をリアルタイム追跡

Download on the App Store